This demonstration page uses our WeatherBlox Daily Observations layout. Learn more.

Hourly Observations for September 6, 2019

Temp ( °F °C ) Dew Point ( °F °C ) Humidity (%) Winds ( mph kmh ) Pressure ( in mb ) Visibility ( mi km ) Precip ( " mm )
12:15 am 00:15 Clear 73 22.8 72 22.2 96 96 NNE 8 13 29.97 1015 10 16.0934 0 0
12:35 am 00:35 Clear 73 22.6 71 21.9 96 96 NNE 6 9 29.98 1015 10 16.0934 0 0
12:55 am 00:55 Clear 72 22.2 70 21.3 95 95 NNE 8 13 29.98 1015 10 16.0934 0 0
1:15 am 01:15 Clear 72 22 70 21.1 95 95 NNE 9 15 29.99 1016 10 16.0934 0 0
1:35 am 01:35 Clear 71 21.6 70 21 96 96 NNE 8 13 30 1016 10 16.0934 0 0
1:55 am 01:55 Clear 71 21.5 70 21.1 98 98 NNE 8 13 30 1016 10 16.0934 0 0
2:15 am 02:15 Clear 71 21.5 70 21.1 98 98 NNE 9 15 30.01 1016 10 16.0934 0 0
2:35 am 02:35 Clear 70 21 68 20.2 95 95 NNE 9 15 30.03 1017 10 16.0934 0 0
2:55 am 02:55 Clear 69 20.7 67 19.7 94 94 NNE 8 13 30.03 1017 10 16.0934 0 0
3:15 am 03:15 Clear 68 20 67 19.2 95 95 NNE 7 11 30.04 1017 10 16.0934 0 0
3:35 am 03:35 Clear 67 19.6 66 18.8 95 95 NNE 7 11 30.04 1017 10 16.0934 0 0
3:55 am 03:55 Clear 67 19.2 65 18.5 96 96 NNE 7 11 30.04 1017 10 16.0934 0 0
4:15 am 04:15 Clear 65 18.5 64 18 97 97 NNE 6 9 30.05 1018 10 16.0934 0 0
4:35 am 04:35 Clear 65 18.2 64 17.6 96 96 NNE 7 11 30.05 1018 10 16.0934 0 0
4:55 am 04:55 Clear 64 17.9 63 17.2 96 96 NNE 6 9 30.05 1018 10 16.0934 0 0
5:15 am 05:15 Clear 64 17.5 63 17 97 97 NNE 7 11 30.06 1018 10 16.0934 0 0
5:35 am 05:35 Clear 63 17.2 62 16.7 97 97 NNE 6 9 30.07 1018 10 16.0934 0 0
5:55 am 05:55 Clear 63 17.1 62 16.5 96 96 N 6 9 30.08 1019 10 16.0934 0 0
6:15 am 06:15 Clear 62 16.8 61 16.3 97 97 NNE 7 11 30.08 1019 10 16.0934 0 0
6:35 am 06:35 Clear 62 16.6 61 16.2 98 98 NNE 5 7 30.1 1019 10 16.0934 0 0
6:55 am 06:55 Clear 62 16.5 61 16 97 97 NNE 6 9 30.11 1020 10 16.0934 0 0
7:10 am 07:10 Sunny 62 16.5 61 16 97 97 N 3 6 30.12 1020 10 16.0934 0 0
7:35 am 07:35 Sunny 61 16.3 60 15.8 97 97 Calm 30.13 1020 10 16.0934 0 0
7:55 am 07:55 Sunny 61 16.1 60 15.8 98 98 Calm 30.14 1021 10 16.0934 0 0
8:15 am 08:15 Sunny 62 16.6 61 16 96 96 NNW 3 6 30.16 1021 10 16.0934 0 0
8:35 am 08:35 Sunny 63 17.4 61 16.3 93 93 N 6 9 30.15 1021 10 16.0934 0 0
8:55 am 08:55 Sunny 65 18.2 62 16.7 91 91 NNE 6 9 30.14 1021 10 16.0934 0 0
9:15 am 09:15 Sunny 66 18.7 62 16.7 88 88 NNE 9 15 30.15 1021 10 16.0934 0 0
9:35 am 09:35 Sunny 67 19.3 62 16.6 84 84 NNE 9 15 30.15 1021 10 16.0934 0 0
9:55 am 09:55 Sunny 68 20 62 16.5 80 80 NE 12 19 30.14 1021 10 16.0934 0 0
10:15 am 10:15 Sunny 69 20.5 62 16.5 78 78 NE 10 17 30.13 1020 10 16.0934 0 0
10:35 am 10:35 Sunny 70 21 61 16.3 75 75 NNE 12 19 30.13 1020 10 16.0934 0 0
10:55 am 10:55 Sunny 70 21.1 60 15.8 72 72 NE 8 13 30.14 1021 10 16.0934 0 0
11:10 am 11:10 Sunny 71 21.7 61 15.9 70 70 NE 9 15 30.13 1020 10 16.0934 0 0
11:35 am 11:35 Sunny 72 22.4 61 16 67 67 NNE 8 13 30.13 1020 10 16.0934 0 0
11:55 am 11:55 Sunny 74 23.2 61 15.9 64 64 NE 12 19 30.12 1020 10 16.0934 0 0
12:15 pm 12:15 Sunny 74 23.6 61 15.9 62 62 NE 9 15 30.12 1020 10 16.0934 0 0
12:35 pm 12:35 Sunny 75 24 59 15.2 58 58 NE 12 19 30.11 1020 10 16.0934 0 0
12:55 pm 12:55 Sunny 76 24.6 60 15.7 58 58 NE 12 19 30.1 1019 10 16.0934 0 0
1:15 pm 13:15 Sunny 76 24.4 60 15.5 58 58 ENE 14 22 30.08 1019 10 16.0934 0 0
1:35 pm 13:35 Sunny 77 25 60 15.3 55 55 ENE 10 17 30.09 1019 10 16.0934 0 0
1:55 pm 13:55 Sunny 78 25.5 60 15.5 54 54 E 14 22 30.06 1018 10 16.0934 0 0
2:15 pm 14:15 Sunny 78 25.6 58 14.4 50 50 E 15 24 30.04 1017 10 16.0934 0 0
2:35 pm 14:35 Sunny 79 26.1 61 16 54 54 E 12 19 30.05 1018 10 16.0934 0 0
2:55 pm 14:55 Sunny 78 25.7 59 15 52 52 E 9 15 30.07 1018 10 16.0934 0 0
3:15 pm 15:15 Sunny 78 25.6 59 15.2 53 53 NE 12 19 30.08 1019 10 16.0934 0 0
3:35 pm 15:35 Sunny 77 25.2 60 15.4 55 55 NE 10 17 30.07 1018 10 16.0934 0 0
3:55 pm 15:55 Sunny 77 24.9 59 15.1 55 55 NE 12 19 30.07 1018 10 16.0934 0 0
4:15 pm 16:15 Sunny 77 24.9 60 15.4 56 56 NE 10 17 30.07 1018 10 16.0934 0 0
4:35 pm 16:35 Sunny 76 24.5 58 14.4 53 53 NE 7 11 30.07 1018 10 16.0934 0 0
4:55 pm 16:55 Sunny 76 24.5 58 14.2 53 53 ENE 10 17 30.06 1018 10 16.0934 0 0
5:15 pm 17:15 Sunny 76 24.4 60 15.5 58 58 ENE 10 17 30.06 1018 10 16.0934 0 0
5:35 pm 17:35 Sunny 76 24.3 60 15.5 58 58 ENE 9 15 30.04 1017 10 16.0934 0 0
5:55 pm 17:55 Sunny 76 24.2 61 16 60 60 ENE 8 13 30.04 1017 10 16.0934 0 0
6:15 pm 18:15 Sunny 75 23.7 60 15.3 59 59 ENE 10 17 30.03 1017 10 16.0934 0 0
6:35 pm 18:35 Sunny 73 22.7 60 15.5 64 64 E 7 11 30.04 1017 10 16.0934 0 0
6:55 pm 18:55 Sunny 73 22.8 61 16.1 66 66 ENE 6 9 30.04 1017 10 16.0934 0 0
7:15 pm 19:15 Sunny 72 22.1 62 16.8 72 72 ENE 7 11 30.04 1017 10 16.0934 0 0
7:35 pm 19:35 Sunny 70 21.3 61 16.3 73 73 E 6 9 30.04 1017 10 16.0934 0 0
7:55 pm 19:55 Sunny 69 20.6 61 16.2 76 76 E 6 9 30.04 1017 10 16.0934 0 0
8:15 pm 20:15 Clear 67 19.7 62 16.9 84 84 E 3 6 30.06 1018 10 16.0934 0 0
8:35 pm 20:35 Clear 68 20 63 17 83 83 E 3 6 30.07 1018 10 16.0934 0 0
8:55 pm 20:55 Clear 68 19.9 63 17 83 83 E 3 6 30.07 1018 10 16.0934 0 0
9:15 pm 21:15 Clear 67 19.3 63 17 87 87 E 5 7 30.07 1018 10 16.0934 0 0
9:35 pm 21:35 Clear 67 19.3 62 16.8 86 86 E 5 7 30.08 1019 10 16.0934 0 0
9:55 pm 21:55 Clear 66 19.1 62 16.6 86 86 E 5 7 30.08 1019 10 16.0934 0 0
10:15 pm 22:15 Clear 66 19.1 62 16.6 86 86 E 6 9 30.08 1019 10 16.0934 0 0
10:35 pm 22:35 Clear 66 18.8 62 16.5 87 87 E 6 9 30.09 1019 10 16.0934 0 0
10:55 pm 22:55 Clear 65 18.1 62 16.5 90 90 E 3 6 30.09 1019 10 16.0934 0 0
11:15 pm 23:15 Clear 63 17.3 61 16.1 93 93 E 3 6 30.1 1019 10 16.0934 0 0
11:35 pm 23:35 Clear 63 17.3 61 16.1 93 93 E 5 7 30.1 1019 10 16.0934 0 0
11:55 pm 23:55 Clear 63 17.1 61 16.3 95 95 Calm 30.1 1019 10 16.0934 0 0

Powered by AerisWeather